Location: Geyikbay?r?
(36.8756°N, 30.4583°E)
Time: 11:56:07
(UTC+00:00)

Cosmos 2333 Rocket - Pass Details

Date: 05 August 2024
Orbit: 839 x 863 km, 70.8° (Epoch: 12 September)

Event Time Altitude Azimuth Distance (km) Brightness Sun altitude
Exits shadow 22:45:16 25° 65° (ENE) 1,657 3.9 -35.6°
Drops below altitude 10° 22:48:11 10° 42° (NE) 2,499 5.3 -35.5°
Sets 22:50:52 0° 33° (NNE) 3,443 6.3 -35.4°
